SCP
0 0 0 0 0 0 0 0 0 0 0 0 0 0 0 0 0 0 0 0 0 0 0 0 0 0 1 0 1 0 0 0 0 0 0 0 0 0 0 0 0 0 0
0 0 -0 -0 -0 0 0 0 0 0 0 0 0 0 0 0 0 0 0 0 0 0 0 0 0 0 1 0 0 0 0 0 0 0 0 0 0 0 0 0 0 0 0
0 0 0 0 -0 0 0 0 0 0 0 0 0 0 0 0 0 0 0 0 0 0 0 0 0 0 0 0 0 0 0 0 0 0 0 0 0 0 0 0 0 0 0
0 0 0 0 0 0 0 0 0 0 0 0 0 0 0 0 0 0 0 0 0 0 0 0 0 0 0 0 0 0 0 0 0 0 0 0 0 0 0 0 0 0 0
0 0 -0 -0 -0 -0 0 0 0 0 0 0 0 0 0 0 0 0 0 0 0 0 0 0 0 0 0 0 0 0 0 0 1 1 0 0 0 0 0 0 0 0 0
0 -0 -0 -0 -0 -0 -0 0 0 0 0 0 0 0 0 0 0 0 0 0 0 0 0 0 0 0 0 0 0 0 0 0 1 1 0 0 0 0 0 0 0 0 0
0 -0 -0 -0 -0 -0 0 0 0 0 0 0 0 0 0 0 0 0 0 0 0 0 0 0 0 0 0 0 0 0 0 0 0 0 0 0 0 0 0 0 0 0 0
0 0 -0 -0 -0 -0 -0 -0 0 0 0 0 0 0 0 0 0 0 0 0 0 0 0 0 0 0 0 0 0 0 0 0 0 0 0 0 0 0 0 0 0 0 0
0 0 0 -0 -0 -0 -0 0 0 0 0 0 0 0 0 0 0 0 0 0 0 0 0 0 0 0 0 0 0 0 0 0 0 0 0 0 0 0 0 0 0 0 0
0 0 0 0 0 -0 -0 -0 0 0 0 0 0 0 0 0 0 0 0 0 0 0 0 0 0 0 0 0 0 0 0 0 0 0 0 0 0 0 0 0 0 0 0
0 0 0 0 0 0 0 -0 -0 -0 0 0 0 0 0 0 0 0 0 0 0 0 0 0 0 0 0 0 0 0 0 0 0 0 0 0 0 0 0 0 0 0 0
0 0 0 0 0 0 0 0 -0 0 -0 0 0 0 0 0 0 0 0 0 0 0 0 0 0 0 0 0 0 0 0 0 0 0 0 0 0 0 0 0 0 0 0
0 0 0 0 0 0 0 0 0 0 0 0 0 0 0 0 0 0 0 0 0 0 0 0 0 0 0 0 0 0 0 0 0 0 0 0 0 0 0 0 0 0 0
0 0 0 0 0 0 0 0 0 0 0 0 0 0 0 0 0 0 0 0 0 0 0 0 0 0 0 0 0 0 0 0 0 0 0 0 0 0 0 0 0 0 0
0 0 0 0 0 0 0 0 0 0 0 0 0 0 0 0 0 0 0 0 0 0 0 0 0 0 0 0 0 0 0 0 0 0 0 0 0 0 0 0 0 0 0
0 0 0 0 0 0 0 0 0 0 0 0 0 0 0 0 0 0 0 0 0 0 0 0 0 0 0 0 0 0 0 0 0 0 0 0 0 0 0 0 0 0 0
0 0 0 0 0 0 0 0 0 0 0 0 0 0 0 0 0 0 0 0 0 0 0 0 0 0 0 0 0 0 0 0 0 0 0 0 0 0 0 0 0 0 0
0 0 0 0 0 0 0 0 0 0 0 0 0 0 0 0 0 0 0 0 0 0 0 0 0 0 0 0 0 0 0 0 0 0 0 0 0 0 0 0 0 0 0
0 0 0 0 0 0 0 0 0 0 0 0 0 0 0 0 0 0 0 0 0 0 0 0 0 0 0 0 0 0 0 0 0 0 0 0 0 0 0 0 0 0 0
0 0 0 0 0 0 0 0 0 0 0 0 0 0 0 0 0 0 0 0 0 0 0 0 0 0 0 0 0 0 0 0 0 0 0 0 0 0 0 0 0 0 0
0 0 0 0 0 0 0 0 0 0 0 0 0 0 0 0 0 0 0 0 0 0 0 0 0 0 0 0 0 0 0 0 0 0 0 0 0 0 0 0 0 0 0
0 0 0 0 0 0 0 0 0 0 0 0 0 0 0 0 0 0 0 0 0 0 0 0 0 0 0 0 0 0 0 0 0 0 0 0 0 0 0 0 0 0 0
0 0 0 0 0 0 0 0 0 0 0 0 0 0 0 0 0 0 0 0 0 0 0 0 0 0 0 0 0 0 0 0 0 0 0 0 0 0 0 0 0 0 0
0 0 0 0 0 0 0 0 0 0 0 0 0 0 0 0 0 0 0 0 0 0 0 0 0 0 0 0 0 0 0 0 0 0 0 0 0 0 0 0 0 0 0
0 0 0 0 0 0 0 0 0 0 0 0 0 0 0 0 0 0 0 0 0 0 0 0 0 0 0 0 0 0 0 0 0 0 0 0 0 0 0 0 0 0 0
0 0 0 0 0 0 0 0 0 0 0 0 0 0 0 0 0 0 0 0 0 0 0 0 0 0 0 0 0 0 0 0 0 0 0 0 0 0 0 0 0 0 0
Wind_Speed_500mb
36 40 49 55 57 58 61 55 55 51 57 69 76 80 75 69 69 68 62 65 71 81 77 82 83 81 88 90 90 91 88 84 78 70 67 72 70 67 66 67 65 66 72
33 47 57 67 73 71 64 57 53 52 57 62 65 65 62 60 60 60 58 56 58 67 74 77 77 87 89 90 97 93 97 93 85 82 66 57 76 79 78 75 75 75 72
33 49 57 65 73 76 62 52 50 51 51 56 52 50 46 52 54 51 51 54 52 55 61 69 74 75 79 90 97 98 95 99 89 87 74 29 39 55 74 91 85 79 79
31 41 52 64 74 67 55 51 52 48 42 42 31 33 37 43 46 50 49 51 49 46 50 57 59 66 71 79 80 91 84 87 80 85 85 85 51 29 29 41 56 54 51
28 36 45 56 65 61 52 53 48 39 33 24 17 28 36 37 37 45 48 48 50 51 48 56 60 60 69 78 81 82 89 85 93 92 78 86 90 80 63 42 49 50 47
23 32 42 56 63 59 51 50 46 40 29 20 18 27 31 34 38 36 42 46 45 48 51 54 55 58 64 72 80 86 83 82 93 97 93 90 74 70 71 62 67 67 61
20 32 43 54 59 55 48 51 45 33 26 21 23 28 24 27 32 35 36 36 36 42 50 54 60 63 61 63 67 79 76 74 76 86 98 86 95 79 68 63 62 57 56
17 25 31 40 51 52 44 43 40 39 29 26 20 24 22 22 24 30 34 35 39 45 51 55 57 61 61 61 64 66 70 71 74 73 86 81 83 73 81 74 57 38 48
16 17 21 31 40 48 48 40 35 32 32 29 26 23 18 19 21 26 29 34 37 43 53 58 52 49 51 53 56 61 56 66 65 56 57 71 52 51 40 23 21 28 44
17 14 14 21 28 40 43 41 38 37 33 30 27 25 26 22 21 19 24 31 34 40 44 34 29 30 34 30 28 38 49 51 53 45 24 13 28 28 35 38 39 40 51
20 17 14 17 20 25 31 34 37 36 33 32 28 22 20 22 19 20 21 21 22 27 23 16 16 20 18 14 19 18 28 30 24 30 28 20 22 29 26 26 32 37 41
26 21 16 14 16 17 19 23 29 31 34 32 29 28 25 23 21 16 11 10 8 4 2 3 5 3 12 13 16 11 11 16 30 27 26 20 14 17 17 19 19 22 27
33 26 22 17 16 14 15 16 17 20 21 21 24 26 25 22 21 22 20 18 18 18 16 14 14 17 10 9 9 6 11 8 9 9 11 10 11 13 13 18 19 22 24
41 35 29 24 20 15 13 13 17 18 19 21 21 23 24 21 20 21 20 17 16 19 21 20 16 12 12 11 7 3 2 2 5 6 10 9 13 15 17 20 22 24 28
48 48 39 30 24 21 18 14 13 15 17 18 22 26 26 23 21 19 19 17 16 17 18 22 19 17 12 10 9 9 9 5 3 5 6 8 12 18 18 18 19 20 21
52 54 44 35 31 27 24 20 18 15 15 16 20 22 24 24 21 19 16 16 17 16 15 14 13 14 13 10 8 5 4 6 7 8 10 11 14 16 14 14 15 18 19
50 54 51 42 34 32 28 24 20 18 17 18 19 21 23 22 20 19 20 21 19 17 16 16 14 14 15 14 12 10 12 14 15 15 16 19 20 19 16 16 17 15 17
54 52 49 42 39 36 34 27 23 20 19 20 22 24 24 24 23 21 18 17 16 13 9 9 9 12 14 16 13 14 15 11 11 11 9 11 12 13 20 22 20 20 20
37 45 51 41 40 38 34 30 26 22 19 19 22 24 24 24 26 24 19 12 8 6 4 5 6 8 11 10 9 9 8 6 3 2 5 7 10 16 19 23 24 25 23
29 28 35 45 46 40 35 33 28 24 21 20 23 25 26 25 24 23 17 12 7 3 1 0 2 6 9 11 10 10 10 7 7 5 5 8 14 19 21 24 27 26 31
32 29 31 41 47 40 33 34 30 26 22 22 24 27 28 27 24 18 13 10 8 6 5 4 3 3 5 4 4 7 10 13 14 13 13 14 19 22 23 24 23 24 31
32 30 29 32 40 37 32 33 30 26 24 22 23 24 26 26 22 17 14 11 9 8 8 8 8 8 6 7 11 12 13 15 16 19 18 18 23 27 27 28 28 31 34
35 30 27 32 38 35 32 31 28 27 25 22 23 23 24 21 17 14 13 13 14 14 12 12 12 13 12 13 15 17 19 19 19 21 18 23 27 26 32 30 31 34 34
29 26 33 34 37 35 33 29 28 28 25 23 23 24 23 20 16 15 14 13 13 14 16 17 16 16 15 16 16 21 24 26 27 26 28 31 33 33 30 32 33 33 34
28 29 39 35 35 32 30 30 29 26 23 22 23 24 22 19 17 16 15 15 15 16 15 16 17 19 19 19 19 21 24 29 29 34 34 36 37 31 28 31 32 34 37
27 29 39 38 33 30 29 27 25 22 20 20 22 24 23 19 17 15 15 16 16 16 17 18 19 18 20 21 20 22 25 27 27 35 37 37 31 30 32 35 40 42 41
Wind_Direction_500mb
330 337 343 340 335 330 321 312 307 297 293 284 268 263 266 267 263 260 259 254 251 246 243 244 244 248 247 248 249 249 247 241 240 240 243 248 248 247 247 245 247 254 252
355 358 355 354 348 338 328 321 317 314 308 293 277 260 266 267 277 265 262 260 257 253 249 248 251 248 251 252 250 249 245 241 238 232 231 238 242 245 244 244 248 256 255
356 356 353 350 346 342 337 329 325 323 312 307 282 260 270 265 273 265 267 266 268 259 256 255 256 258 255 255 257 255 242 242 238 234 229 224 228 243 248 248 250 254 259
350 352 347 347 349 346 342 340 338 331 320 311 278 262 284 275 278 270 266 270 270 265 265 267 267 266 263 259 260 262 263 251 245 245 240 235 240 225 238 243 243 246 252
347 347 347 350 355 352 350 347 346 343 336 331 278 288 279 281 280 274 269 268 267 263 266 268 273 273 267 264 263 265 264 264 252 246 243 242 243 238 240 244 246 241 246
339 346 346 353 0 3 355 353 354 355 351 341 312 300 293 289 281 278 275 279 276 265 269 273 274 274 271 263 261 259 262 262 259 252 247 245 233 235 237 244 248 254 261
336 343 350 356 3 5 6 9 2 1 358 337 311 319 285 297 285 281 284 278 277 270 272 273 273 275 276 267 265 257 262 263 263 260 244 245 246 245 251 251 253 257 260
324 340 347 356 2 7 0 356 357 14 359 343 324 326 308 306 294 286 287 285 285 280 283 285 282 283 275 271 263 261 265 268 268 271 259 245 250 249 248 247 242 260 274
312 319 344 358 5 8 13 3 1 3 354 359 347 333 323 309 301 293 291 288 288 284 282 286 290 285 278 275 267 260 262 260 259 281 275 252 238 224 224 228 230 261 276
272 294 331 355 4 10 11 11 12 9 6 355 341 329 330 331 320 306 296 293 295 293 289 290 284 287 292 274 263 254 249 261 259 257 262 246 258 276 282 274 277 268 270
259 274 304 343 354 6 17 14 19 17 13 11 9 6 349 331 320 305 305 294 282 286 281 274 268 268 270 270 290 258 259 252 263 237 245 235 241 245 262 263 267 265 265
247 260 287 310 335 345 2 18 26 18 24 25 17 9 5 357 352 4 360 357 350 24 320 36 125 159 247 234 271 253 193 227 233 260 267 257 258 270 256 262 253 264 270
243 253 268 279 299 323 343 347 1 10 16 13 17 15 15 9 358 344 345 3 16 12 15 22 34 36 31 39 91 144 199 186 204 236 258 281 303 274 278 274 285 283 282
245 249 253 262 271 290 308 329 344 357 356 357 353 356 1 355 357 9 16 353 354 5 360 357 360 18 22 4 19 16 20 278 282 279 293 308 290 308 309 306 302 304 304
243 242 248 252 258 264 274 290 315 330 339 347 346 350 355 352 352 350 339 341 340 346 346 331 315 321 329 331 326 320 321 303 293 285 306 330 331 313 317 330 331 320 317
249 245 246 246 251 255 260 271 285 301 317 329 334 341 340 342 344 342 341 339 341 340 337 338 347 360 5 12 5 354 50 63 59 56 45 34 22 23 26 20 7 354 343
257 250 247 250 252 253 253 257 268 285 302 311 317 326 330 329 328 331 334 334 336 340 337 344 358 16 30 33 35 38 47 48 47 47 42 37 28 22 15 9 8 358 354
267 260 255 253 249 249 246 247 255 268 286 301 313 321 325 325 321 322 323 321 325 336 349 357 20 25 33 31 38 41 31 28 28 38 47 32 30 25 355 345 346 353 348
314 272 260 260 251 247 245 245 249 261 276 294 307 314 321 324 322 322 323 326 331 338 354 20 37 39 35 29 32 26 18 12 17 358 341 342 337 335 350 336 341 345 340
312 306 263 254 242 241 244 244 249 257 270 289 303 312 318 321 319 320 322 323 324 320 304 286 47 41 24 34 40 20 21 19 26 9 345 336 338 339 340 335 339 338 332
297 299 287 264 249 235 241 243 246 255 269 288 304 313 318 320 319 315 309 310 311 302 291 286 270 329 14 36 44 28 2 350 349 347 343 340 347 342 336 335 337 330 319
298 288 289 267 237 237 245 246 249 251 260 276 292 302 309 314 316 316 314 308 305 297 286 281 279 291 310 305 319 338 333 337 330 328 332 330 333 328 325 326 322 318 319
300 277 266 250 236 241 249 251 254 256 267 280 292 299 305 305 301 297 301 311 313 306 294 286 287 298 308 312 318 328 329 329 331 336 330 325 325 318 318 318 319 316 316
299 272 246 237 236 241 247 248 255 258 266 280 290 298 302 302 296 291 293 297 299 298 305 304 302 304 310 316 320 326 331 336 340 333 325 323 318 313 305 302 306 310 313
279 262 240 245 241 240 240 246 249 251 265 281 295 302 303 298 293 293 295 296 294 295 299 302 302 306 313 323 332 327 334 336 334 313 312 311 315 315 311 307 309 312 313
259 253 239 237 235 237 236 237 242 252 269 287 300 304 297 291 288 290 295 299 300 303 306 308 308 312 318 329 317 316 330 315 312 307 309 314 317 317 319 317 317 320 324
Wind_Speed_850mb
36 40 49 55 57 58 61 55 55 51 57 69 76 80 75 69 69 68 62 65 71 81 77 82 83 81 88 90 90 91 88 84 78 70 67 72 70 67 66 67 65 66 72
33 47 57 67 73 71 64 57 53 52 57 62 65 65 62 60 60 60 58 56 58 67 74 77 77 87 89 90 97 93 97 93 85 82 66 57 76 79 78 75 75 75 72
33 49 57 65 73 76 62 52 50 51 51 56 52 50 46 52 54 51 51 54 52 55 61 69 74 75 79 90 97 98 95 99 89 87 74 29 39 55 74 91 85 79 79
31 41 52 64 74 67 55 51 52 48 42 42 31 33 37 43 46 50 49 51 49 46 50 57 59 66 71 79 80 91 84 87 80 85 85 85 51 29 29 41 56 54 51
28 36 45 56 65 61 52 53 48 39 33 24 17 28 36 37 37 45 48 48 50 51 48 56 60 60 69 78 81 82 89 85 93 92 78 86 90 80 63 42 49 50 47
23 32 42 56 63 59 51 50 46 40 29 20 18 27 31 34 38 36 42 46 45 48 51 54 55 58 64 72 80 86 83 82 93 97 93 90 74 70 71 62 67 67 61
20 32 43 54 59 55 48 51 45 33 26 21 23 28 24 27 32 35 36 36 36 42 50 54 60 63 61 63 67 79 76 74 76 86 98 86 95 79 68 63 62 57 56
17 25 31 40 51 52 44 43 40 39 29 26 20 24 22 22 24 30 34 35 39 45 51 55 57 61 61 61 64 66 70 71 74 73 86 81 83 73 81 74 57 38 48
16 17 21 31 40 48 48 40 35 32 32 29 26 23 18 19 21 26 29 34 37 43 53 58 52 49 51 53 56 61 56 66 65 56 57 71 52 51 40 23 21 28 44
17 14 14 21 28 40 43 41 38 37 33 30 27 25 26 22 21 19 24 31 34 40 44 34 29 30 34 30 28 38 49 51 53 45 24 13 28 28 35 38 39 40 51
20 17 14 17 20 25 31 34 37 36 33 32 28 22 20 22 19 20 21 21 22 27 23 16 16 20 18 14 19 18 28 30 24 30 28 20 22 29 26 26 32 37 41
26 21 16 14 16 17 19 23 29 31 34 32 29 28 25 23 21 16 11 10 8 4 2 3 5 3 12 13 16 11 11 16 30 27 26 20 14 17 17 19 19 22 27
33 26 22 17 16 14 15 16 17 20 21 21 24 26 25 22 21 22 20 18 18 18 16 14 14 17 10 9 9 6 11 8 9 9 11 10 11 13 13 18 19 22 24
41 35 29 24 20 15 13 13 17 18 19 21 21 23 24 21 20 21 20 17 16 19 21 20 16 12 12 11 7 3 2 2 5 6 10 9 13 15 17 20 22 24 28
48 48 39 30 24 21 18 14 13 15 17 18 22 26 26 23 21 19 19 17 16 17 18 22 19 17 12 10 9 9 9 5 3 5 6 8 12 18 18 18 19 20 21
52 54 44 35 31 27 24 20 18 15 15 16 20 22 24 24 21 19 16 16 17 16 15 14 13 14 13 10 8 5 4 6 7 8 10 11 14 16 14 14 15 18 19
50 54 51 42 34 32 28 24 20 18 17 18 19 21 23 22 20 19 20 21 19 17 16 16 14 14 15 14 12 10 12 14 15 15 16 19 20 19 16 16 17 15 17
54 52 49 42 39 36 34 27 23 20 19 20 22 24 24 24 23 21 18 17 16 13 9 9 9 12 14 16 13 14 15 11 11 11 9 11 12 13 20 22 20 20 20
37 45 51 41 40 38 34 30 26 22 19 19 22 24 24 24 26 24 19 12 8 6 4 5 6 8 11 10 9 9 8 6 3 2 5 7 10 16 19 23 24 25 23
29 28 35 45 46 40 35 33 28 24 21 20 23 25 26 25 24 23 17 12 7 3 1 0 2 6 9 11 10 10 10 7 7 5 5 8 14 19 21 24 27 26 31
32 29 31 41 47 40 33 34 30 26 22 22 24 27 28 27 24 18 13 10 8 6 5 4 3 3 5 4 4 7 10 13 14 13 13 14 19 22 23 24 23 24 31
32 30 29 32 40 37 32 33 30 26 24 22 23 24 26 26 22 17 14 11 9 8 8 8 8 8 6 7 11 12 13 15 16 19 18 18 23 27 27 28 28 31 34
35 30 27 32 38 35 32 31 28 27 25 22 23 23 24 21 17 14 13 13 14 14 12 12 12 13 12 13 15 17 19 19 19 21 18 23 27 26 32 30 31 34 34
29 26 33 34 37 35 33 29 28 28 25 23 23 24 23 20 16 15 14 13 13 14 16 17 16 16 15 16 16 21 24 26 27 26 28 31 33 33 30 32 33 33 34
28 29 39 35 35 32 30 30 29 26 23 22 23 24 22 19 17 16 15 15 15 16 15 16 17 19 19 19 19 21 24 29 29 34 34 36 37 31 28 31 32 34 37
27 29 39 38 33 30 29 27 25 22 20 20 22 24 23 19 17 15 15 16 16 16 17 18 19 18 20 21 20 22 25 27 27 35 37 37 31 30 32 35 40 42 41
Wind_Direction_850mb
330 337 343 340 335 330 321 312 307 297 293 284 268 263 266 267 263 260 259 254 251 246 243 244 244 248 247 248 249 249 247 241 240 240 243 248 248 247 247 245 247 254 252
355 358 355 354 348 338 328 321 317 314 308 293 277 260 266 267 277 265 262 260 257 253 249 248 251 248 251 252 250 249 245 241 238 232 231 238 242 245 244 244 248 256 255
356 356 353 350 346 342 337 329 325 323 312 307 282 260 270 265 273 265 267 266 268 259 256 255 256 258 255 255 257 255 242 242 238 234 229 224 228 243 248 248 250 254 259
350 352 347 347 349 346 342 340 338 331 320 311 278 262 284 275 278 270 266 270 270 265 265 267 267 266 263 259 260 262 263 251 245 245 240 235 240 225 238 243 243 246 252
347 347 347 350 355 352 350 347 346 343 336 331 278 288 279 281 280 274 269 268 267 263 266 268 273 273 267 264 263 265 264 264 252 246 243 242 243 238 240 244 246 241 246
339 346 346 353 0 3 355 353 354 355 351 341 312 300 293 289 281 278 275 279 276 265 269 273 274 274 271 263 261 259 262 262 259 252 247 245 233 235 237 244 248 254 261
336 343 350 356 3 5 6 9 2 1 358 337 311 319 285 297 285 281 284 278 277 270 272 273 273 275 276 267 265 257 262 263 263 260 244 245 246 245 251 251 253 257 260
324 340 347 356 2 7 0 356 357 14 359 343 324 326 308 306 294 286 287 285 285 280 283 285 282 283 275 271 263 261 265 268 268 271 259 245 250 249 248 247 242 260 274
312 319 344 358 5 8 13 3 1 3 354 359 347 333 323 309 301 293 291 288 288 284 282 286 290 285 278 275 267 260 262 260 259 281 275 252 238 224 224 228 230 261 276
272 294 331 355 4 10 11 11 12 9 6 355 341 329 330 331 320 306 296 293 295 293 289 290 284 287 292 274 263 254 249 261 259 257 262 246 258 276 282 274 277 268 270
259 274 304 343 354 6 17 14 19 17 13 11 9 6 349 331 320 305 305 294 282 286 281 274 268 268 270 270 290 258 259 252 263 237 245 235 241 245 262 263 267 265 265
247 260 287 310 335 345 2 18 26 18 24 25 17 9 5 357 352 4 360 357 350 24 320 36 125 159 247 234 271 253 193 227 233 260 267 257 258 270 256 262 253 264 270
243 253 268 279 299 323 343 347 1 10 16 13 17 15 15 9 358 344 345 3 16 12 15 22 34 36 31 39 91 144 199 186 204 236 258 281 303 274 278 274 285 283 282
245 249 253 262 271 290 308 329 344 357 356 357 353 356 1 355 357 9 16 353 354 5 360 357 360 18 22 4 19 16 20 278 282 279 293 308 290 308 309 306 302 304 304
243 242 248 252 258 264 274 290 315 330 339 347 346 350 355 352 352 350 339 341 340 346 346 331 315 321 329 331 326 320 321 303 293 285 306 330 331 313 317 330 331 320 317
249 245 246 246 251 255 260 271 285 301 317 329 334 341 340 342 344 342 341 339 341 340 337 338 347 360 5 12 5 354 50 63 59 56 45 34 22 23 26 20 7 354 343
257 250 247 250 252 253 253 257 268 285 302 311 317 326 330 329 328 331 334 334 336 340 337 344 358 16 30 33 35 38 47 48 47 47 42 37 28 22 15 9 8 358 354
267 260 255 253 249 249 246 247 255 268 286 301 313 321 325 325 321 322 323 321 325 336 349 357 20 25 33 31 38 41 31 28 28 38 47 32 30 25 355 345 346 353 348
314 272 260 260 251 247 245 245 249 261 276 294 307 314 321 324 322 322 323 326 331 338 354 20 37 39 35 29 32 26 18 12 17 358 341 342 337 335 350 336 341 345 340
312 306 263 254 242 241 244 244 249 257 270 289 303 312 318 321 319 320 322 323 324 320 304 286 47 41 24 34 40 20 21 19 26 9 345 336 338 339 340 335 339 338 332
297 299 287 264 249 235 241 243 246 255 269 288 304 313 318 320 319 315 309 310 311 302 291 286 270 329 14 36 44 28 2 350 349 347 343 340 347 342 336 335 337 330 319
298 288 289 267 237 237 245 246 249 251 260 276 292 302 309 314 316 316 314 308 305 297 286 281 279 291 310 305 319 338 333 337 330 328 332 330 333 328 325 326 322 318 319
300 277 266 250 236 241 249 251 254 256 267 280 292 299 305 305 301 297 301 311 313 306 294 286 287 298 308 312 318 328 329 329 331 336 330 325 325 318 318 318 319 316 316
299 272 246 237 236 241 247 248 255 258 266 280 290 298 302 302 296 291 293 297 299 298 305 304 302 304 310 316 320 326 331 336 340 333 325 323 318 313 305 302 306 310 313
279 262 240 245 241 240 240 246 249 251 265 281 295 302 303 298 293 293 295 296 294 295 299 302 302 306 313 323 332 327 334 336 334 313 312 311 315 315 311 307 309 312 313
259 253 239 237 235 237 236 237 242 252 269 287 300 304 297 291 288 290 295 299 300 303 306 308 308 312 318 329 317 316 330 315 312 307 309 314 317 317 319 317 317 320 324